Location: Saint John
(45.2733°N, 66.0633°W)
Time: 19:12:39
(UTC-04:00)

BlueWalker 3 - Pass Details

Date: 05 December 2022
Orbit: 499 x 517 km, 53.2° (Epoch: 05 February)

Event Time Altitude Azimuth Distance (km) Brightness Sun altitude
Rises 17:29:50 0° 294° (WNW) 2,631 6.3 -8.3°
Reaches altitude 10° 17:32:20 10° 307° (NW) 1,740 5.1 -8.7°
Maximum altitude 17:35:39 26° 5° (N) 1,048 3.3 -9.2°
Enters shadow 17:38:24 13° 58° (ENE) 1,545 3.8 -9.7°
